Weather History for KAFK - May, 2014

Change the Weather History Date:

Friday, May 9, 2014

  Actual Average (KSDA) Record (KSDA)
Temperature  
Mean Temperature 56 °F -  
Max Temperature 71 °F 72 °F 98 °F (2011)
Min Temperature 41 °F 48 °F 26 °F (1980)
Degree Days  
Heating Degree Days 9    
Growing Degree Days 6 (Base 50)    
Moisture  
Dew Point 38 °F    
Average Humidity 54    
Maximum Humidity 88    
Minimum Humidity 27    
Precipitation  
Precipitation 0.00 in - - ()
Sea Level Pressure  
Sea Level Pressure 29.85 in    
Wind  
Wind Speed 11 mph (West)    
Max Wind Speed 20 mph    
Max Gust Speed 31 mph    
Visibility 10 miles    
Events      
Averages and records for this station are not official NWS values.
T = Trace of Precipitation, MM = Missing Value Source: NWS Daily Summary

Daily Weather History Graph

Daily Weather History Graph

Search for Another Location

Airport or City:

Trip Planner

Search our weather history database for the weather conditions in past years. The results will help you decide how hot, cold, wet, or windy it might be!

Date:

Astronomy

May. 09, 2014 Rise Set
Actual Time 6:12 AM CDT 8:27 PM CDT
Civil Twilight 5:42 AM CDT 8:58 PM CDT
Nautical Twilight 5:04 AM CDT 9:35 PM CDT
Astronomical Twilight 4:23 AM CDT 10:17 PM CDT
Moon 3:24 PM CDT (5/9) 3:17 AM CDT (5/9)
Length of Visible Light 15h 15m
Length of Day
14h 14m
Waxing Gibbous, 74% of the Moon is Illuminated
May 9
Waxing Gibbous
May 14
Full
May 21
Last Quarter
May 28
New
Jun 5
First Quarter

Hourly Weather History & Observations

Time (CDT) Temp. Windchill Dew Point Humidity Pressure Visibility Wind Dir Wind Speed Gust Speed Precip Events Conditions
12:15 AM 53.2 °F - 41.2 °F 64% 29.80 in 10.0 mi NW 19.6 mph 24.2 mph N/A   Clear
12:35 AM 52.2 °F - 41.5 °F 67% 29.80 in 10.0 mi WNW 19.6 mph 31.1 mph N/A   Clear
12:55 AM 50.7 °F - 40.6 °F 68% 29.81 in 10.0 mi NW 16.1 mph 26.5 mph N/A   Clear
1:15 AM 49.8 °F - 40.5 °F 70% 29.82 in 10.0 mi NW 13.8 mph 18.4 mph N/A   Clear
1:35 AM 49.1 °F - 39.6 °F 70% 29.81 in 10.0 mi WNW 18.4 mph 24.2 mph N/A   Clear
1:55 AM 47.8 °F - 39.2 °F 72% 29.81 in 10.0 mi NW 15.0 mph - N/A   Clear
2:15 AM 46.8 °F - 38.8 °F 74% 29.81 in 10.0 mi NW 10.4 mph - N/A   Clear
2:35 AM 46.4 °F 41.9 °F 38.8 °F 75% 29.81 in 10.0 mi NW 9.2 mph - N/A   Clear
2:55 AM 45.9 °F 41.2 °F 39.2 °F 78% 29.81 in 10.0 mi NW 9.2 mph - N/A   Scattered Clouds
3:15 AM 46.6 °F - 39.2 °F 75% 29.82 in 10.0 mi NW 11.5 mph 19.6 mph N/A   Mostly Cloudy
3:35 AM 46.0 °F 40.2 °F 39.2 °F 77% 29.83 in 10.0 mi NW 12.7 mph 17.3 mph N/A   Scattered Clouds
3:55 AM 45.5 °F 40.8 °F 38.7 °F 77% 29.84 in 10.0 mi NW 9.2 mph - N/A   Clear
4:15 AM 45.1 °F 40.8 °F 38.5 °F 77% 29.85 in 10.0 mi WNW 8.1 mph - N/A   Clear
4:35 AM 44.8 °F 39.9 °F 38.8 °F 80% 29.86 in 10.0 mi WNW 9.2 mph - N/A   Clear
4:55 AM 43.9 °F 41.3 °F 38.7 °F 82% 29.86 in 10.0 mi West 4.6 mph - N/A   Clear
5:15 AM 43.0 °F 40.3 °F 38.5 °F 84% 29.87 in 10.0 mi West 4.6 mph - N/A   Clear
5:35 AM 43.2 °F 39.7 °F 38.3 °F 83% 29.87 in 10.0 mi West 5.8 mph - N/A   Clear
5:55 AM 42.6 °F 39.0 °F 38.3 °F 85% 29.87 in 10.0 mi West 5.8 mph - N/A   Clear
6:15 AM 42.1 °F 39.2 °F 37.9 °F 85% 29.88 in 10.0 mi WSW 4.6 mph - N/A   Clear
6:35 AM 41.5 °F 37.8 °F 38.1 °F 88% 29.89 in 10.0 mi West 5.8 mph - N/A   Clear
6:55 AM 43.0 °F 40.3 °F 38.7 °F 85% 29.89 in 10.0 mi West 4.6 mph - N/A   Clear
7:15 AM 44.2 °F 39.7 °F 39.2 °F 82% 29.89 in 10.0 mi West 8.1 mph - N/A   Clear
7:35 AM 45.5 °F 40.3 °F 39.6 °F 80% 29.89 in 10.0 mi WNW 10.4 mph - N/A   Clear
7:55 AM 47.3 °F - 39.9 °F 76% 29.88 in 10.0 mi NW 12.7 mph - N/A   Clear
8:15 AM 49.1 °F - 39.9 °F 71% 29.89 in 10.0 mi WNW 13.8 mph 19.6 mph N/A   Clear
8:35 AM 49.8 °F - 40.3 °F 70% 29.90 in 10.0 mi WNW 15.0 mph - N/A   Clear
8:55 AM 50.5 °F - 40.5 °F 68% 29.91 in 10.0 mi WNW 12.7 mph - N/A   Clear
9:15 AM 51.8 °F - 40.6 °F 66% 29.90 in 10.0 mi NW 10.4 mph 17.3 mph N/A   Clear
9:35 AM 52.9 °F - 41.0 °F 64% 29.90 in 10.0 mi WNW 11.5 mph - N/A   Clear
9:55 AM 54.0 °F - 41.0 °F 62% 29.90 in 10.0 mi NNW 9.2 mph 17.3 mph N/A   Clear
10:15 AM 55.0 °F - 41.2 °F 60% 29.90 in 10.0 mi NW 12.7 mph 18.4 mph N/A   Clear
10:35 AM 55.6 °F - 41.4 °F 59% 29.89 in 10.0 mi NW 9.2 mph 16.1 mph N/A   Clear
10:55 AM 57.0 °F - 41.5 °F 56% 29.89 in 10.0 mi WNW 12.7 mph 16.1 mph N/A   Clear
11:15 AM 57.6 °F - 40.6 °F 53% 29.89 in 10.0 mi NW 12.7 mph 16.1 mph N/A   Clear
11:35 AM 59.0 °F - 40.3 °F 50% 29.89 in 10.0 mi WNW 8.1 mph 17.3 mph N/A   Clear
11:55 AM 60.1 °F - 40.6 °F 49% 29.89 in 10.0 mi WNW 9.2 mph - N/A   Clear
12:15 PM 60.6 °F - 39.9 °F 46% 29.88 in 10.0 mi North 9.2 mph - N/A   Clear
12:35 PM 61.9 °F - 40.1 °F 45% 29.88 in 10.0 mi NW 9.2 mph - N/A   Clear
12:55 PM 62.8 °F - 39.4 °F 42% 29.87 in 10.0 mi WNW 10.4 mph - N/A   Clear
1:15 PM 63.3 °F - 39.0 °F 41% 29.87 in 10.0 mi West 8.1 mph - N/A   Clear
1:35 PM 64.4 °F - 38.3 °F 38% 29.87 in 10.0 mi NW 11.5 mph 16.1 mph N/A   Clear
1:55 PM 65.5 °F - 38.7 °F 37% 29.86 in 10.0 mi NW 12.7 mph 16.1 mph N/A   Clear
2:15 PM 66.6 °F - 38.3 °F 35% 29.86 in 10.0 mi West 6.9 mph 17.3 mph N/A   Clear
2:35 PM 67.6 °F - 37.9 °F 34% 29.85 in 10.0 mi WSW 9.2 mph 19.6 mph N/A   Clear
2:55 PM 67.6 °F - 38.3 °F 34% 29.85 in 10.0 mi West 6.9 mph 17.3 mph N/A   Clear
3:15 PM 68.5 °F - 38.3 °F 33% 29.85 in 10.0 mi West 10.4 mph 18.4 mph N/A   Clear
3:35 PM 69.4 °F - 39.0 °F 33% 29.84 in 10.0 mi West 4.6 mph 16.1 mph N/A   Clear
3:55 PM 69.3 °F - 38.7 °F 33% 29.84 in 10.0 mi West 4.6 mph 19.6 mph N/A   Clear
4:15 PM 70.5 °F - 39.0 °F 32% 29.83 in 10.0 mi West 11.5 mph 17.3 mph N/A   Clear
4:35 PM 70.3 °F - 37.9 °F 31% 29.82 in 10.0 mi West 9.2 mph 18.4 mph N/A   Clear
4:55 PM 71.6 °F - 38.7 °F 30% 29.82 in 10.0 mi West 11.5 mph 19.6 mph N/A   Scattered Clouds
5:15 PM 70.5 °F - 36.5 °F 29% 29.81 in 10.0 mi West 13.8 mph - N/A   Scattered Clouds
5:35 PM 71.4 °F - 36.9 °F 28% 29.81 in 10.0 mi SW 5.8 mph 18.4 mph N/A   Scattered Clouds
5:55 PM 71.2 °F - 36.0 °F 27% 29.81 in 10.0 mi West 10.4 mph - N/A   Clear
6:15 PM 71.1 °F - 35.6 °F 27% 29.80 in 10.0 mi West 9.2 mph - N/A   Clear
6:35 PM 70.7 °F - 35.1 °F 27% 29.80 in 10.0 mi West 9.2 mph - N/A   Clear
6:55 PM 69.4 °F - 34.5 °F 28% 29.80 in 10.0 mi West 8.1 mph - N/A   Clear
7:15 PM 69.3 °F - 37.2 °F 31% 29.80 in 10.0 mi West 5.8 mph - N/A   Clear
7:35 PM 68.5 °F - 36.0 °F 30% 29.80 in 10.0 mi WNW 5.8 mph - N/A   Clear
7:55 PM 67.3 °F - 36.3 °F 32% 29.80 in 10.0 mi West 4.6 mph - N/A   Clear
8:15 PM 68.2 °F - 33.4 °F 28% 29.81 in 10.0 mi Calm Calm - N/A   Clear
8:35 PM 66.4 °F - 34.0 °F 30% 29.82 in 10.0 mi Calm Calm - N/A   Clear
8:55 PM 65.7 °F - 34.3 °F 31% 29.82 in 10.0 mi Calm Calm - N/A   Clear
9:15 PM 65.7 °F - 33.8 °F 31% 29.82 in 10.0 mi South 3.5 mph - N/A   Clear
9:35 PM 61.7 °F - 34.9 °F 37% 29.83 in 10.0 mi SSE 4.6 mph - N/A   Clear
9:55 PM 61.5 °F - 35.1 °F 37% 29.83 in 10.0 mi South 5.8 mph - N/A   Clear
10:15 PM 58.5 °F - 36.9 °F 45% 29.84 in 10.0 mi South 4.6 mph - N/A   Clear
10:35 PM 58.3 °F - 36.3 °F 44% 29.84 in 10.0 mi South 6.9 mph - N/A   Clear
10:55 PM 57.7 °F - 36.7 °F 45% 29.84 in 10.0 mi South 5.8 mph - N/A   Clear
11:15 PM 55.8 °F - 37.8 °F 51% 29.84 in 10.0 mi South 6.9 mph - N/A   Clear
11:35 PM 55.9 °F - 38.7 °F 52% 29.84 in 10.0 mi South 6.9 mph - N/A   Clear
11:55 PM 55.4 °F - 39.7 °F 56% 29.84 in 10.0 mi South 6.9 mph - N/A   Clear